map of KLLQ home
KLLQ - Airport
Location
City:  Monticello, Arkansas, United States
Name:Monticello Municipal/Ellis Field
ICAO:KLLQ
FAA LID:LLQ

Details
Type:Airport (Airfield)
Use:Public/Civil
Latitude:3338'19"N (33.638556)
Longitude:9145'04"W (-91.750999)
Datum:WGS 1984
Elevation:267 ft (81 m)
Variation:0.08E (WMM2015 magnetic declination)
-0.11 annual change
Runways:1
Longest:5020 × 75 ft (1530 × 23 m), paved

Time
Time Zone:UTC-6 (DST-5)
Local Time:

Weather
METAR:KLLQ 231153Z AUTO 31008KT 10SM CLR 08/04 A2979 RMK AO2 SLP087 70033 T00830044 10122 20083 53019
TAF:KLLQ 231126Z 2312/2412 32009KT P6SM SKC
FM231700 30008KT P6SM SCT050
FM232300 28003KT P6SM SKC

Related Locations
Nearby:
Farthest:MQZ: 10903 mi / 17547 km
Margaret River [Margaret River Airport], WA, AU

Find:

   beyond  
but within

Other Information
Maps:
NOTAMs:
Links:
Sources:

  
flag of United States
flag of Arkansas
  

Sectional Chart

Flight Planning
at skyvector.com

Satellite Image

Google Maps Satellite view

 

Copyright © 2004-2017 Karl L. Swartz. All rights reserved.
The Great Circle Mapper name and logo are trademarks of the Great Circle Mapper.
All other trademarks mentioned herein belong to their respective owners.
Please see credits for attibutions and further copyright information.

  Follow gcmap on Facebook Follow gcmap on Twitter Follow gcmap on Google+ GCmap on LinkedIn

hCard Microformat

Geo Microformat